GW7559 Weather Reports


time (UTC)temp
C
wind
direction
speed
KPH
gust
KPH
rain 1hr
cm
rain 24hr
cm
rain mn
cm
humidity
%
barometer
mb
20260906172117 37 348 3.2 4.8 0.00 0.00 0.00 36 1017.2
20260906171616 37 270 1.6 3.2 0.00 0.00 0.00 36 1017.6
20260906171112 36 125 1.6 4.8 0.00 0.00 0.00 36 1017.6
20260906170608 36 122 1.6 3.2 0.00 0.00 0.00 36 1017.6
20260906170107 36 265 1.6 1.6 0.00 0.00 0.00 37 1017.7
20260906165604 36 305 1.6 1.6 0.00 0.00 0.00 39 1017.6
20260906165059 36 344 1.6 3.2 0.00 0.00 0.00 40 1017.7
20260906164558 36 37 3.2 3.2 0.00 0.00 0.00 39 1017.8
20260906164054 36 6 0.0 3.2 0.00 0.00 0.00 39 1017.9
20260906163549 36 150 1.6 1.6 0.00 0.00 0.00 40 1017.9
20260906163045 35 124 1.6 4.8 0.00 0.00 0.00 41 1017.9
20260906162542 35 27 3.2 4.8 0.00 0.00 0.00 41 1018.0
20260906162037 35 159 3.2 4.8 0.00 0.00 0.00 40 1017.8
20260906161532 35 314 4.8 4.8 0.00 0.00 0.00 41 1018.0
20260906161031 35 10 4.8 4.8 0.00 0.00 0.00 41 1018.0
20260906160530 35 245 1.6 1.6 0.00 0.00 0.00 42 1018.1
20260906160029 35 335 1.6 4.8 0.00 0.00 0.00 42 1018.0
20260906155526 34 152 1.6 6.4 0.00 0.00 0.00 42 1018.0
20260906155023 34 357 1.6 4.8 0.00 0.00 0.00 42 1018.0
20260906154517 33 354 3.2 4.8 0.00 0.00 0.00 43 1017.9
20260906154016 33 25 3.2 3.2 0.00 0.00 0.00 43 1017.8
20260906153515 33 12 4.8 4.8 0.00 0.00 0.00 44 1017.9
20260906153012 33 12 3.2 3.2 0.00 0.00 0.00 43 1017.8
20260906152511 34 157 3.2 4.8 0.00 0.00 0.00 44 1017.9
20260906152010 34 222 0.0 0.0 0.00 0.00 0.00 43 1017.9
20260906151506 33 206 0.0 0.0 0.00 0.00 0.00 44 1017.8
20260906151001 32 313 0.0 0.0 0.00 0.00 0.00 45 1017.8
20260906150456 33 295 3.2 1.6 0.00 0.00 0.00 45 1017.7
20260906145955 32 147 0.0 0.0 0.00 0.00 0.00 45 1017.8
20260906145450 32 101 0.0 0.0 0.00 0.00 0.00 46 1017.6
20260906144949 32 311 0.0 0.0 0.00 0.00 0.00 46 1017.7
20260906144444 32 229 0.0 3.2 0.00 0.00 0.00 47 1017.6
20260906143940 32 200 1.6 1.6 0.00 0.00 0.00 48 1017.8
20260906143435 32 195 1.6 1.6 0.00 0.00 0.00 49 1017.8
20260906142931 32 136 0.0 0.0 0.00 0.00 0.00 48 1017.8
20260906142431 32 136 0.0 0.0 0.00 0.00 0.00 50 1017.7
20260906141926 31 135 0.0 0.0 0.00 0.00 0.00 52 1017.9
20260906141425 31 135 0.0 0.0 0.00 0.00 0.00 53 1017.9
20260906140920 30 135 0.0 0.0 0.00 0.00 0.00 55 1017.7
20260906140415 30 135 0.0 0.0 0.00 0.00 0.00 57 1017.9
20260906135913 29 135 0.0 0.0 0.00 0.00 0.00 58 1017.8
20260906135412 28 135 0.0 3.2 0.00 0.00 0.00 60 1018.0
20260906134908 28 136 1.6 3.2 0.00 0.00 0.00 60 1017.6
20260906134403 28 137 1.6 3.2 0.00 0.00 0.00 61 1017.6
20260906133858 28 144 0.0 3.2 0.00 0.00 0.00 62 1017.7
20260906133354 28 149 0.0 3.2 0.00 0.00 0.00 62 1017.6
20260906132849 27 161 0.0 3.2 0.00 0.00 0.00 63 1017.6
20260906132344 27 162 0.0 0.0 0.00 0.00 0.00 65 1017.6
20260906131840 26 162 0.0 0.0 0.00 0.00 0.00 71 1017.6
20260906131335 25 161 0.0 0.0 0.00 0.00 0.00 73 1017.4
20260906130831 25 162 0.0 0.0 0.00 0.00 0.00 75 1017.7
20260906130330 25 162 0.0 0.0 0.00 0.00 0.00 76 1017.5
20260906125829 24 162 0.0 0.0 0.00 0.00 0.00 77 1017.4
20260906125326 24 162 0.0 0.0 0.00 0.00 0.00 78 1017.3
20260906124821 23 162 0.0 0.0 0.00 0.00 0.00 78 1017.4
20260906124318 23 162 0.0 0.0 0.00 0.00 0.00 80 1017.3
20260906123816 23 162 0.0 0.0 0.00 0.00 0.00 81 1017.4
20260906123312 22 162 0.0 0.0 0.00 0.00 0.00 83 1017.1
20260906122811 22 162 0.0 0.0 0.00 0.00 0.00 84 1017.2
20260906122306 22 162 0.0 0.0 0.00 0.00 0.00 85 1017.1
20260906121803 22 162 0.0 0.0 0.00 0.00 0.00 85 1017.0
20260906121259 22 162 0.0 0.0 0.00 0.00 0.00 84 1016.8
20260906120755 22 162 0.0 0.0 0.00 0.00 0.00 85 1016.7
20260906120251 22 162 0.0 0.0 0.00 0.00 0.00 84 1016.8
20260906115747 22 162 0.0 0.0 0.00 0.00 0.00 84 1016.7
20260906115242 22 162 0.0 0.0 0.00 0.00 0.00 84 1016.5
20260906114740 22 162 0.0 0.0 0.00 0.00 0.00 83 1016.6
20260906114236 22 162 0.0 0.0 0.00 0.00 0.00 82 1016.6
20260906113732 22 162 0.0 0.0 0.00 0.00 0.00 83 1016.4
20260906113231 22 162 0.0 0.0 0.00 0.00 0.00 82 1016.5
20260906112730 22 162 0.0 0.0 0.00 0.00 0.00 82 1016.5
20260906112227 22 162 0.0 0.0 0.00 0.00 0.00 82 1016.5
20260906111726 22 162 0.0 0.0 0.00 0.00 0.00 81 1016.2
20260906111221 22 162 0.0 0.0 0.00 0.00 0.00 81 1016.2
20260906110716 22 162 0.0 0.0 0.00 0.00 0.00 81 1016.6
20260906110212 22 162 0.0 0.0 0.00 0.00 0.00 81 1016.5
20260906105711 22 162 0.0 0.0 0.00 0.00 0.00 81 1016.3
20260906105208 22 162 0.0 0.0 0.00 0.00 0.00 81 1016.3
20260906104707 22 162 0.0 0.0 0.00 0.00 0.00 82 1016.4
20260906104206 22 162 0.0 0.0 0.00 0.00 0.00 82 1016.4
20260906103704 22 162 0.0 0.0 0.00 0.00 0.00 81 1016.4
20260906103159 22 162 0.0 0.0 0.00 0.00 0.00 81 1016.5
20260906102654 22 162 0.0 0.0 0.00 0.00 0.00 80 1016.5
20260906102154 22 162 0.0 0.0 0.00 0.00 0.00 80 1016.4
20260906101654 22 162 0.0 0.0 0.00 0.00 0.00 80 1016.5
20260906101149 22 162 0.0 0.0 0.00 0.00 0.00 80 1016.4
20260906100644 22 162 0.0 0.0 0.00 0.00 0.00 79 1016.4
20260906100139 22 162 0.0 0.0 0.00 0.00 0.00 80 1016.2
20260906095634 22 162 0.0 0.0 0.00 0.00 0.00 79 1016.3
20260906095129 23 162 0.0 0.0 0.00 0.00 0.00 79 1016.2
20260906094628 23 162 0.0 0.0 0.00 0.00 0.00 79 1016.3
20260906094124 23 162 0.0 0.0 0.00 0.00 0.00 79 1016.3
20260906093620 23 162 0.0 0.0 0.00 0.00 0.00 78 1016.4
20260906093120 23 162 0.0 0.0 0.00 0.00 0.00 77 1016.2
20260906092615 23 162 0.0 0.0 0.00 0.00 0.00 77 1016.2
20260906092110 23 162 0.0 0.0 0.00 0.00 0.00 77 1016.3
20260906091606 23 162 0.0 0.0 0.00 0.00 0.00 77 1016.3
20260906091103 23 162 0.0 0.0 0.00 0.00 0.00 76 1016.3
20260906090602 23 162 0.0 0.0 0.00 0.00 0.00 76 1016.1
20260906085602 23 162 0.0 0.0 0.00 0.00 0.00 75 1016.0
20260906085056 23 162 0.0 0.0 0.00 0.00 0.00 75 1016.1
20260906084551 23 162 0.0 0.0 0.00 0.00 0.00 74 1015.9
20260906084050 23 162 0.0 0.0 0.00 0.00 0.00 74 1016.1
20260906083545 23 162 0.0 0.0 0.00 0.00 0.00 75 1016.1
20260906083045 24 162 0.0 0.0 0.00 0.00 0.00 74 1016.0
20260906082540 24 162 0.0 0.0 0.00 0.00 0.00 74 1016.0
20260906082036 24 162 0.0 0.0 0.00 0.00 0.00 73 1016.0
20260906081532 24 162 0.0 0.0 0.00 0.00 0.00 72 1015.9
20260906081027 24 162 0.0 0.0 0.00 0.00 0.00 72 1015.9
20260906080524 24 162 0.0 0.0 0.00 0.00 0.00 72 1016.0
20260906080020 25 162 0.0 0.0 0.00 0.00 0.00 72 1015.8
20260906075519 25 162 0.0 0.0 0.00 0.00 0.00 71 1015.7
20260906075014 25 162 0.0 0.0 0.00 0.00 0.00 71 1016.1
20260906074509 25 162 0.0 0.0 0.00 0.00 0.00 70 1016.0
20260906074007 25 162 0.0 0.0 0.00 0.00 0.00 69 1015.8
20260906073502 25 162 0.0 0.0 0.00 0.00 0.00 69 1015.9
20260906072958 25 162 0.0 0.0 0.00 0.00 0.00 68 1015.9
20260906072453 25 162 0.0 0.0 0.00 0.00 0.00 67 1016.1
20260906071949 25 162 0.0 0.0 0.00 0.00 0.00 67 1016.1
20260906071446 25 162 0.0 0.0 0.00 0.00 0.00 69 1016.0
20260906070941 25 162 0.0 0.0 0.00 0.00 0.00 69 1016.0
20260906070436 25 162 0.0 0.0 0.00 0.00 0.00 69 1016.1
20260906065932 25 162 0.0 0.0 0.00 0.00 0.00 68 1016.1
20260906065426 25 162 0.0 0.0 0.00 0.00 0.00 68 1016.0
20260906064922 25 162 0.0 0.0 0.00 0.00 0.00 68 1016.0
20260906064418 25 162 0.0 0.0 0.00 0.00 0.00 68 1016.1
20260906063918 25 162 0.0 0.0 0.00 0.00 0.00 68 1016.2
20260906063413 25 162 0.0 0.0 0.00 0.00 0.00 67 1016.4
20260906062908 26 162 0.0 0.0 0.00 0.00 0.00 66 1016.2
20260906062408 25 162 0.0 0.0 0.00 0.00 0.00 66 1016.2
20260906061904 26 162 0.0 0.0 0.00 0.00 0.00 66 1016.3
20260906061400 26 162 0.0 0.0 0.00 0.00 0.00 66 1016.3
20260906060859 26 162 0.0 0.0 0.00 0.00 0.00 65 1016.3
20260906060358 26 162 0.0 0.0 0.00 0.00 0.00 66 1016.2
20260906055853 26 162 0.0 0.0 0.00 0.00 0.00 65 1016.2
20260906055349 26 162 0.0 0.0 0.00 0.00 0.00 64 1016.3
20260906054844 26 162 0.0 0.0 0.00 0.00 0.00 63 1016.3
20260906054339 26 162 0.0 0.0 0.00 0.00 0.00 62 1016.3
20260906053835 27 162 0.0 0.0 0.00 0.00 0.00 62 1016.3
20260906053331 26 162 0.0 0.0 0.00 0.00 0.00 62 1016.2
20260906052826 26 177 0.0 0.0 0.00 0.00 0.00 63 1016.1
20260906052322 26 177 0.0 0.0 0.00 0.00 0.00 63 1016.1
20260906051819 26 177 0.0 0.0 0.00 0.00 0.00 63 1016.1
20260906051318 26 177 0.0 0.0 0.00 0.00 0.00 62 1015.9
20260906050814 26 177 0.0 0.0 0.00 0.00 0.00 63 1016.1
20260906050309 26 141 0.0 0.0 0.00 0.00 0.00 63 1016.2
20260906045808 26 141 0.0 0.0 0.00 0.00 0.00 62 1015.9
20260906045305 26 141 0.0 0.0 0.00 0.00 0.00 63 1016.2
20260906044759 26 141 0.0 0.0 0.00 0.00 0.00 63 1016.0
20260906044253 26 141 0.0 0.0 0.00 0.00 0.00 63 1015.9
20260906043749 27 141 0.0 0.0 0.00 0.00 0.00 62 1016.2
20260906043245 27 141 0.0 0.0 0.00 0.00 0.00 62 1016.1
20260906042745 27 141 0.0 0.0 0.00 0.00 0.00 62 1016.2
20260906042244 27 141 0.0 0.0 0.00 0.00 0.00 63 1016.2
20260906041739 27 141 0.0 0.0 0.00 0.00 0.00 62 1016.0
20260906041235 27 141 0.0 0.0 0.00 0.00 0.00 62 1016.2
20260906040730 27 141 0.0 0.0 0.00 0.00 0.00 62 1016.1
20260906040225 27 140 0.0 0.0 0.00 0.00 0.00 62 1015.9
20260906035721 27 141 0.0 0.0 0.00 0.00 0.00 62 1016.1
20260906035216 27 141 0.0 0.0 0.00 0.00 0.00 62 1016.1
20260906034716 27 141 0.0 0.0 0.00 0.00 0.00 62 1016.0
20260906034211 27 141 0.0 0.0 0.00 0.00 0.00 62 1016.2
20260906033707 27 141 0.0 0.0 0.00 0.00 0.00 62 1016.1
20260906033207 27 141 0.0 0.0 0.00 0.00 0.00 61 1016.1
20260906032704 27 140 0.0 0.0 0.00 0.00 0.00 61 1015.9
20260906032158 27 141 0.0 0.0 0.00 0.00 0.00 61 1016.0
20260906031653 27 141 0.0 0.0 0.00 0.00 0.00 60 1015.8
20260906031148 27 140 0.0 0.0 0.00 0.00 0.00 60 1015.9
20260906030648 28 141 0.0 0.0 0.00 0.00 0.00 59 1016.0
20260906030143 28 141 0.0 0.0 0.00 0.00 0.00 59 1015.7
20260906025642 28 141 0.0 0.0 0.00 0.00 0.00 58 1015.8
20260906025142 28 141 0.0 0.0 0.00 0.00 0.00 58 1015.5
20260906024637 28 141 0.0 0.0 0.00 0.00 0.00 58 1015.7
20260906024136 28 141 0.0 0.0 0.00 0.00 0.00 58 1015.5
20260906023632 28 141 0.0 0.0 0.00 0.00 0.00 56 1015.5
20260906023132 28 140 0.0 0.0 0.00 0.00 0.00 56 1015.5
20260906022627 29 140 0.0 1.6 0.00 0.00 0.00 55 1015.5
20260906022123 29 166 0.0 0.0 0.00 0.00 0.00 55 1015.5
20260906021619 29 174 0.0 0.0 0.00 0.00 0.00 55 1015.4
20260906021117 29 174 0.0 0.0 0.00 0.00 0.00 54 1015.3
20260906020617 30 175 0.0 0.0 0.00 0.00 0.00 53 1015.3
20260906020111 30 198 0.0 0.0 0.00 0.00 0.00 52 1015.1
20260906015606 30 160 1.6 3.2 0.00 0.00 0.00 51 1014.9
20260906015105 30 200 0.0 1.6 0.00 0.00 0.00 51 1015.1
20260906014559 30 198 0.0 0.0 0.00 0.00 0.00 51 1015.0
20260906014056 30 144 0.0 0.0 0.00 0.00 0.00 50 1014.9
20260906013551 31 120 3.2 3.2 0.00 0.00 0.00 49 1014.8
20260906013046 31 161 1.6 1.6 0.00 0.00 0.00 48 1015.0
20260906012542 31 159 0.0 0.0 0.00 0.00 0.00 47 1014.7
20260906012041 31 159 0.0 1.6 0.00 0.00 0.00 46 1014.7
20260906011537 32 180 0.0 1.6 0.00 0.00 0.00 46 1014.6
20260906011037 32 186 0.0 0.0 0.00 0.00 0.00 45 1014.6
20260906010532 32 182 0.0 0.0 0.00 0.00 0.00 43 1014.6
20260906010029 32 308 3.2 11.3 0.00 0.00 0.00 42 1014.6
20260906005527 32 170 0.0 0.0 0.00 0.00 0.00 44 1014.5
20260906005027 32 171 0.0 0.0 0.00 0.00 0.00 44 1014.7
20260906004526 32 171 0.0 0.0 0.00 0.00 0.00 43 1014.3
20260906004021 32 171 0.0 0.0 0.00 0.00 0.00 43 1014.4
20260906003516 33 171 0.0 0.0 0.00 0.00 0.00 43 1014.6
20260906003013 33 171 0.0 0.0 0.00 0.00 0.00 43 1014.5
20260906002507 33 171 0.0 0.0 0.00 0.00 0.00 42 1014.7
20260906002002 33 191 0.0 0.0 0.00 0.00 0.00 42 1014.5
20260906001457 33 169 0.0 0.0 0.00 0.00 0.00 41 1014.5
20260906000951 34 200 0.0 0.0 0.00 0.00 0.00 40 1014.6
20260906000448 35 184 0.0 3.2 0.00 0.00 0.00 38 1014.6
20260905235942 35 207 0.0 1.6 0.00 0.00 0.00 37 1014.6
20260905235442 35 207 0.0 3.2 0.00 0.00 0.00 36 1014.6
20260905234937 36 175 0.0 0.0 0.00 0.00 0.00 32 1014.5
20260905234433 36 175 0.0 1.6 0.00 0.00 0.00 30 1014.3
20260905233932 36 175 1.6 3.2 0.00 0.00 0.00 30 1014.4
20260905233428 36 170 1.6 3.2 0.00 0.00 0.00 29 1014.3
20260905232927 37 161 0.0 0.0 0.00 0.00 0.00 30 1014.4
20260905232423 37 169 1.6 1.6 0.00 0.00 0.00 30 1014.2
20260905231918 37 178 0.0 0.0 0.00 0.00 0.00 29 1014.2
20260905231414 37 179 1.6 1.6 0.00 0.00 0.00 28 1014.4
20260905230911 37 352 3.2 3.2 0.00 0.00 0.00 28 1014.3
20260905230408 38 262 1.6 3.2 0.00 0.00 0.00 28 1014.2
20260905225907 38 357 1.6 3.2 0.00 0.00 0.00 27 1014.4
20260905225402 38 11 1.6 1.6 0.00 0.00 0.00 27 1014.4
20260905224857 38 295 0.0 1.6 0.00 0.00 0.00 27 1014.1
20260905224354 38 78 1.6 3.2 0.00 0.00 0.00 28 1014.3
20260905223848 38 111 1.6 3.2 0.00 0.00 0.00 27 1014.4
20260905223346 38 184 1.6 1.6 0.00 0.00 0.00 27 1014.1
20260905222846 38 219 0.0 3.2 0.00 0.00 0.00 27 1014.2
20260905222344 38 283 3.2 3.2 0.00 0.00 0.00 26 1014.3
20260905221841 39 162 3.2 4.8 0.00 0.00 0.00 25 1014.3
20260905221337 39 256 0.0 1.6 0.00 0.00 0.00 26 1014.1
20260905220833 38 154 1.6 1.6 0.00 0.00 0.00 26 1014.3
20260905220329 38 228 1.6 3.2 0.00 0.00 0.00 28 1014.4
20260905215828 38 203 3.2 3.2 0.00 0.00 0.00 28 1014.5
20260905215324 38 125 6.4 6.4 0.00 0.00 0.00 27 1014.6
20260905214820 38 166 1.6 11.3 0.00 0.00 0.00 28 1014.4
20260905214315 38 310 3.2 3.2 0.00 0.00 0.00 26 1014.4
20260905213810 39 350 0.0 1.6 0.00 0.00 0.00 27 1014.5
20260905213306 39 219 1.6 1.6 0.00 0.00 0.00 26 1014.5
20260905212801 39 224 3.2 3.2 0.00 0.00 0.00 26 1014.7
20260905212300 38 267 1.6 3.2 0.00 0.00 0.00 27 1014.7
20260905211755 38 246 4.8 4.8 0.00 0.00 0.00 27 1014.7
20260905211250 38 233 1.6 4.8 0.00 0.00 0.00 29 1014.9
20260905210747 37 271 0.0 3.2 0.00 0.00 0.00 29 1014.9
20260905210246 38 79 1.6 6.4 0.00 0.00 0.00 29 1015.1
20260905205745 38 306 1.6 3.2 0.00 0.00 0.00 28 1015.1
20260905205240 38 163 1.6 1.6 0.00 0.00 0.00 30 1015.1
20260905204739 37 276 1.6 3.2 0.00 0.00 0.00 30 1015.3
20260905204235 38 168 3.2 6.4 0.00 0.00 0.00 29 1015.4
20260905203735 38 331 4.8 4.8 0.00 0.00 0.00 30 1015.3
20260905203230 37 275 3.2 4.8 0.00 0.00 0.00 31 1015.5
20260905202726 37 17 4.8 9.7 0.00 0.00 0.00 32 1015.7
20260905202221 37 311 3.2 4.8 0.00 0.00 0.00 31 1015.7
20260905201717 37 212 1.6 1.6 0.00 0.00 0.00 33 1015.8
20260905201217 37 168 6.4 6.4 0.00 0.00 0.00 32 1015.7
20260905200712 38 296 3.2 4.8 0.00 0.00 0.00 31 1015.9
20260905200208 38 270 0.0 1.6 0.00 0.00 0.00 32 1016.0
20260905195705 37 257 0.0 3.2 0.00 0.00 0.00 32 1016.0
20260905195201 37 226 0.0 3.2 0.00 0.00 0.00 31 1016.1
20260905194656 37 235 0.0 1.6 0.00 0.00 0.00 32 1016.0
20260905194155 37 151 3.2 4.8 0.00 0.00 0.00 31 1016.0
20260905193649 37 212 0.0 3.2 0.00 0.00 0.00 33 1016.2
20260905193145 36 88 1.6 4.8 0.00 0.00 0.00 34 1016.4
20260905192640 36 14 3.2 4.8 0.00 0.00 0.00 35 1016.4
20260905192137 36 295 1.6 3.2 0.00 0.00 0.00 35 1016.4
20260905191636 36 280 1.6 1.6 0.00 0.00 0.00 36 1016.5
20260905191134 37 24 0.0 4.8 0.00 0.00 0.00 35 1016.4
20260905190633 38 320 3.2 4.8 0.00 0.00 0.00 35 1016.6
20260905190132 37 285 3.2 4.8 0.00 0.00 0.00 34 1016.8
20260905185631 38 20 4.8 4.8 0.00 0.00 0.00 33 1016.7
20260905185126 38 21 4.8 4.8 0.00 0.00 0.00 32 1016.8
20260905184620 37 254 1.6 6.4 0.00 0.00 0.00 34 1016.9
20260905184119 37 306 3.2 4.8 0.00 0.00 0.00 33 1017.0
20260905183618 37 313 3.2 3.2 0.00 0.00 0.00 34 1017.0
20260905183114 36 338 3.2 6.4 0.00 0.00 0.00 38 1017.1
20260905182614 35 231 0.0 1.6 0.00 0.00 0.00 38 1017.2
20260905182113 35 183 3.2 3.2 0.00 0.00 0.00 38 1017.6
20260905181614 35 56 1.6 3.2 0.00 0.00 0.00 39 1017.3
20260905181113 36 333 4.8 9.7 0.00 0.00 0.00 38 1017.4
20260905180608 36 13 3.2 4.8 0.00 0.00 0.00 37 1017.4
20260905180103 37 350 6.4 6.4 0.00 0.00 0.00 35 1017.5
20260905175602 37 323 4.8 6.4 0.00 0.00 0.00 35 1017.6
20260905175058 36 211 3.2 4.8 0.00 0.00 0.00 35 1017.4
20260905174553 36 341 1.6 3.2 0.00 0.00 0.00 36 1017.7
20260905174049 36 292 4.8 4.8 0.00 0.00 0.00 37 1017.8
20260905173545 36 282 0.0 3.2 0.00 0.00 0.00 38 1017.7
20260905173040 36 154 0.0 4.8 0.00 0.00 0.00 38 1017.8